[[{"header":{"parameterUnit":"m.s-1","parameterCategory":1,"la1":30.2991,"la2":30.254,"lo1":-89.0895,"lo2":-89.0444,"dy":0.0017,"dx":0.0017,"nx":28,"ny":28,"refTime":"2024-03-07T09:00:00:Z","depth":0,"parameterNumber":2,"parameterNumberName":"U-component_of_WINDS"},"data":[0,0,0,0,0,0,0,0,0,0,0,0,0,0,0,0,0,0,0,0,0,0,0,0,0,0,0,0,0,0,0,0,0,0,0,0,0,0,0,0,0,0,0,0,0,0,0,0,0,0,0,0,0,0,0,0,0,0,-3.4143,-3.4143,0,-3.4186,-3.4187,-3.4187,-3.4123,-3.4121,-3.4119,-3.4117,-3.4163,-3.4166,-3.4169,0,0,0,0,0,0,0,0,0,0,0,0,0,-3.4006,-3.4009,-3.4142,-3.4143,-3.4144,-3.4186,-3.4187,-3.4187,-3.4124,-3.4121,-3.4118,-3.4116,-3.4162,-3.4165,-3.4169,0,0,0,0,0,0,0,0,0,0,0,0,0,-3.4059,-3.401,-3.4142,-3.4117,-3.4115,-3.4186,-3.4187,-3.4187,-3.4124,-3.4121,-3.4118,-3.4115,-3.416,-3.4165,-3.417,-3.4268,0,0,-3.4185,-3.4187,0,0,0,0,0,0,0,0,-3.4056,-3.4064,-3.412,-3.4119,-3.4117,-3.4146,-3.4155,-3.4214,-3.4125,-3.4121,-3.4117,-3.4113,-3.416,-3.4165,-3.418,-3.427,-3.4272,-3.4186,-3.4189,-3.4191,-3.4192,0,0,0,0,0,0,0,-3.4053,-3.4062,-3.416,-3.4121,-3.4119,-3.4104,-3.4108,-3.4166,-3.4159,-3.4121,-3.4117,-3.4123,-3.4158,-3.4176,-3.4181,-3.4273,-3.4185,-3.419,-3.4193,-3.4195,-3.4446,-3.445,0,0,0,0,0,0,-3.4052,-3.406,-3.4158,-3.4161,-3.4078,-3.4109,-3.4114,-3.414,-3.4158,-3.4157,-3.4125,-3.4119,-3.4169,-3.4175,-3.4182,-3.4298,-3.4191,-3.4195,-3.4198,-3.4442,-3.4447,-3.4451,0,0,0,0,0,0,-3.4049,-3.4061,-3.4157,-3.4109,-3.412,-3.4115,-3.4145,-3.4143,-3.416,-3.4161,-3.416,-3.4144,-3.4166,-3.4175,-3.4247,-3.4298,-3.4198,-3.4202,-3.4438,-3.4444,-3.4449,-3.453,0,0,0,0,0,0,-3.4046,-3.4061,-3.4097,-3.411,-3.4123,-3.422,-3.4149,-3.4146,-3.4168,-3.4161,-3.4178,-3.4178,-3.4164,-3.424,-3.4252,-3.4303,-3.4206,-3.4433,-3.4441,-3.4447,-3.4523,-3.4538,-3.455,0,0,0,0,0,-3.4041,-3.4118,-3.4099,-3.4112,-3.4168,-3.4223,-3.423,-3.4213,-3.4173,-3.421,-3.4211,-3.4178,-3.4292,-3.4248,-3.4261,-3.4315,-3.443,-3.4439,-3.4447,-3.4516,-3.4535,-3.455,0,0,0,0,0,0,-3.4111,-3.412,-3.4099,-3.4182,-3.4203,-3.4212,-3.4258,-3.4233,-3.4265,-3.4256,-3.4234,-3.4238,-3.4315,-3.4323,-3.4274,-3.4411,-3.4354,-3.4366,-3.4403,-3.442,-3.4434,-3.443,-3.421,0,0,0,0,0,-3.4137,-3.418,-3.4185,-3.4259,-3.427,-3.4263,-3.4286,-3.4271,-3.4291,-3.4299,-3.4306,-3.4327,-3.4368,-3.4395,-3.4432,-3.4525,-3.4527,-3.4568,-3.4582,-3.4593,-3.4603,-3.4652,-3.467,-3.4478,-3.4478,-3.4478,0,0,-3.4189,-3.4199,-3.4228,-3.4273,-3.4287,-3.4333,-3.427,-3.4321,-3.4355,-3.4307,-3.4375,-3.4381,-3.4404,-3.4486,-3.4523,-3.4494,-3.4657,-3.4604,-3.4613,-3.4616,-3.4663,-3.4681,-3.4697,-3.4484,-3.4483,-3.4482,0,0,-3.4307,-3.432,-3.4382,-3.4398,-3.442,-3.4415,-3.443,-3.4445,-3.4447,-3.4515,-3.448,-3.4521,-3.4591,-3.4608,-3.4626,-3.4755,-3.4725,-3.4768,-3.4839,-3.4888,-3.4903,-3.4917,-3.4962,-3.4978,-3.4778,-3.4778,-3.4778,0,-3.4369,-3.4437,-3.4418,-3.4472,-3.4493,-3.4452,-3.4516,-3.4532,-3.4566,-3.4581,-3.455,-3.4638,-3.465,-3.4736,-3.4768,-3.4784,-3.4801,-3.4764,-3.4903,-3.4916,-3.4928,-3.497,-3.4988,-3.4783,-3.4782,-3.4782,-3.4781,0,-3.4512,-3.456,-3.4608,-3.4641,-3.4668,-3.4727,-3.4717,-3.4747,-3.4731,-3.473,-3.48,-3.4814,-3.4854,-3.4874,-3.4858,-3.4958,-3.494,-3.4906,-3.4848,-3.4951,-3.4991,-3.5007,-3.479,-3.4788,-3.4787,-3.4786,0,0,-3.4673,-3.4696,-3.4714,-3.4729,-3.4752,-3.4788,-3.4846,-3.4885,-3.4911,-3.4937,-3.4984,-3.5046,-3.5015,-3.5036,-3.5022,-3.5066,-3.5166,-3.5026,-3.5026,-3.505,-3.5277,-3.5301,-3.532,-3.5148,-3.5151,-3.5153,-3.5274,0,-3.479,-3.4888,-3.4874,-3.4969,-3.5013,-3.4977,-3.5027,-3.5047,-3.5048,-3.5086,-3.5088,-3.5132,-3.5088,-3.5101,-3.5142,-3.5145,-3.5211,-3.5136,-3.5191,-3.5193,-3.5184,-3.5341,-3.5366,-3.5479,-3.529,-3.5293,-3.5294,0,-3.4939,-3.497,-3.5069,-3.5086,-3.5104,-3.5149,-3.5184,-3.5221,-3.5244,-3.5242,-3.5267,-3.5246,-3.5305,-3.5248,-3.5329,-3.5278,-3.5301,-3.5306,-3.531,-3.5313,-3.5248,-3.5346,-3.5515,-3.5532,-3.5319,-3.5317,-3.5315,0,-3.5045,-3.5112,-3.518,-3.5194,-3.5216,-3.5248,-3.5259,-3.5278,-3.5303,-3.5335,-3.535,-3.5389,-3.5409,-3.544,-3.543,-3.539,-3.5513,-3.5455,-3.5513,-3.5513,-3.5538,-3.5536,-3.5711,-3.5556,-3.5556,-3.5556,-3.5555,0,-3.5176,-3.5238,-3.5227,-3.5269,-3.5338,-3.5322,-3.5391,-3.5398,-3.5416,-3.5459,-3.5431,-3.5472,-3.5458,-3.5498,-3.5492,-3.556,-3.557,-3.557,-3.5567,-3.5571,-3.5571,-3.5583,-3.5574,-3.556,-3.5559,-3.5558,-3.5557,0,-3.5304,-3.53,-3.5372,-3.5387,-3.5392,-3.5442,-3.5456,-3.5496,-3.5496,-3.5551,-3.5563,-3.5563,-3.561,-3.5604,-3.5657,-3.5652,-3.5736,-3.5725,-3.5728,-3.5724,-3.5781,-3.5776,-3.5969,-3.5994,-3.5825,-3.5826,-3.5828,0,-3.5387,-3.5434,-3.5454,-3.5481,-3.5494,-3.5538,-3.5563,-3.555,-3.5578,-3.5609,-3.5645,-3.5689,-3.5723,-3.58,-3.5805,-3.5845,-3.5834,-3.5899,-3.5839,-3.5842,-3.5833,-3.5829,-3.5834,-3.591,-3.5912,-3.5913,-3.5915,0,-3.5534,-3.553,-3.5567,-3.5604,-3.5635,-3.5664,-3.569,-3.5714,-3.5704,-3.5737,-3.5784,-3.5811,-3.5865,-3.5909,-3.5948,-3.596,-3.5936,-3.5934,-3.5949,-3.5952,-3.5952,-3.5951,-3.5758,-3.5929,-3.5927,-3.5926,-3.5925,-3.5925,-3.5641,-3.5681,-3.5702,-3.5745,-3.5763,-3.5789,-3.5827,-3.5832,-3.5872,-3.5914,-3.5905,-3.5958,-3.5982,-3.6031,-3.6047,-3.6089,-3.6065,-3.6087,-3.6092,-3.6098,-3.6104,-3.5947,-3.6096,-3.6096,-3.6095,-3.6095,-3.6095,0,-3.5785,-3.5797,-3.5837,-3.5874,-3.5909,-3.5884,-3.5912,-3.5943,-3.599,-3.6013,-3.6048,-3.6103,-3.6147,-3.6157,-3.6198,-3.623,-3.6221,-3.6242,-3.6238,-3.6241,-3.6123,-3.6105,-3.6249,-3.6249,-3.6249,-3.6249,-3.6249,-3.6249,-3.5863,-3.593,-3.5929,-3.6005,-3.6017,-3.6069,-3.6087,-3.6111,-3.6129,-3.6192,-3.6228,-3.6234,-3.6253,-3.6296,-3.6335,-3.6337,-3.6353,-3.6378,-3.6376,-3.6265,-3.6249,-3.6234,-3.6217,-3.6382,-3.6383,-3.649,-3.6491,-3.6492]},{"header":{"parameterUnit":"m.s-1","parameterCategory":1,"la1":30.2991,"la2":30.254,"lo1":-89.0895,"lo2":-89.0444,"dy":0.0017,"dx":0.0017,"nx":28,"ny":28,"refTime":"2024-03-07T09:00:00:Z","depth":0,"parameterNumber":3,"parameterNumberName":"V-component_of_WINDS"},"data":[0,0,0,0,0,0,0,0,0,0,0,0,0,0,0,0,0,0,0,0,0,0,0,0,0,0,0,0,0,0,0,0,0,0,0,0,0,0,0,0,0,0,0,0,0,0,0,0,0,0,0,0,0,0,0,0,0,0,1.05,1.0501,0,1.0547,1.0548,1.0548,1.0591,1.0592,1.0592,1.0593,1.0638,1.0639,1.064,0,0,0,0,0,0,0,0,0,0,0,0,0,1.0447,1.0448,1.05,1.0501,1.0501,1.0547,1.0548,1.0548,1.0591,1.0592,1.0592,1.0593,1.0638,1.0639,1.064,0,0,0,0,0,0,0,0,0,0,0,0,0,1.048,1.0448,1.05,1.0528,1.0531,1.0547,1.0548,1.0549,1.0591,1.0592,1.0593,1.0593,1.0638,1.0639,1.064,1.0631,0,0,1.0643,1.0644,0,0,0,0,0,0,0,0,1.0478,1.0482,1.0524,1.0526,1.053,1.0564,1.0546,1.0576,1.0591,1.0568,1.0593,1.0594,1.0613,1.0616,1.0623,1.0633,1.0635,1.0643,1.0644,1.0644,1.0645,0,0,0,0,0,0,0,1.0476,1.048,1.0519,1.0524,1.0528,1.0539,1.0544,1.0552,1.0585,1.057,1.0574,1.0579,1.0615,1.0622,1.0624,1.0635,1.0643,1.0644,1.0645,1.0645,1.0643,1.0642,0,0,0,0,0,0,1.0469,1.0478,1.0517,1.052,1.0505,1.0539,1.0545,1.0552,1.0585,1.0591,1.0578,1.058,1.062,1.0623,1.0626,1.0619,1.0644,1.0645,1.0646,1.0643,1.0642,1.0642,0,0,0,0,0,0,1.0468,1.0472,1.0515,1.05,1.0506,1.0539,1.0547,1.0553,1.056,1.0591,1.0597,1.0579,1.062,1.0625,1.063,1.0621,1.0646,1.0647,1.0644,1.0643,1.0642,1.0604,0,0,0,0,0,0,1.0466,1.0472,1.0468,1.05,1.0507,1.0518,1.0546,1.0553,1.0562,1.0566,1.0594,1.0599,1.0621,1.0628,1.0631,1.0623,1.0648,1.0645,1.0644,1.0642,1.0606,1.0602,1.0598,0,0,0,0,0,1.0464,1.0455,1.0468,1.0472,1.0504,1.0518,1.0522,1.0548,1.0561,1.0558,1.0579,1.0598,1.0622,1.0628,1.0632,1.0624,1.0646,1.0644,1.0643,1.0608,1.0603,1.0598,0,0,0,0,0,0,1.042,1.0459,1.0474,1.0475,1.0493,1.0525,1.0522,1.0541,1.0555,1.0558,1.0589,1.0595,1.0597,1.0611,1.0618,1.0619,1.0637,1.0636,1.0609,1.0604,1.06,1.0597,1.0649,0,0,0,0,0,1.0411,1.0419,1.0453,1.045,1.0459,1.0489,1.0496,1.0515,1.0534,1.0542,1.0563,1.058,1.0592,1.0599,1.0611,1.0609,1.0616,1.0605,1.0601,1.0598,1.0597,1.0598,1.0595,1.0636,1.0636,1.0636,0,0,1.0391,1.0413,1.0416,1.0442,1.0458,1.0467,1.0495,1.0502,1.0509,1.0543,1.055,1.0566,1.0588,1.059,1.0592,1.0601,1.0587,1.0596,1.0593,1.0594,1.0596,1.0592,1.0589,1.0635,1.0635,1.0636,0,0,1.0359,1.0376,1.0377,1.0394,1.0418,1.0439,1.0439,1.0469,1.0482,1.049,1.0516,1.0524,1.0543,1.0559,1.0569,1.0546,1.0565,1.0549,1.0527,1.0529,1.0525,1.0523,1.0516,1.0513,1.0548,1.0547,1.0547,0,1.0331,1.0345,1.0375,1.0381,1.0392,1.0425,1.0427,1.0441,1.0468,1.0475,1.0486,1.0512,1.0529,1.0536,1.0531,1.0537,1.0539,1.0546,1.0524,1.0521,1.0519,1.0513,1.051,1.0545,1.0546,1.0546,1.0546,0,1.031,1.032,1.0317,1.0345,1.0356,1.0359,1.0389,1.0397,1.0415,1.0435,1.0443,1.0465,1.0484,1.0487,1.0504,1.0497,1.0502,1.0518,1.0537,1.0513,1.0507,1.0505,1.0543,1.0543,1.0544,1.0544,0,0,1.0251,1.0296,1.0295,1.0309,1.034,1.0348,1.0354,1.0373,1.0379,1.0397,1.0404,1.042,1.0436,1.0447,1.0467,1.0468,1.0451,1.0484,1.0485,1.0478,1.0446,1.0434,1.0431,1.0463,1.0463,1.0463,1.0444,0,1.0225,1.0238,1.0266,1.0271,1.0281,1.0313,1.0319,1.0339,1.0357,1.0369,1.0389,1.0401,1.042,1.0428,1.043,1.0452,1.0445,1.0454,1.047,1.047,1.0464,1.0428,1.0416,1.0397,1.0442,1.0442,1.0442,0,1.0196,1.0215,1.022,1.0253,1.0259,1.0263,1.0284,1.0294,1.0318,1.0332,1.0346,1.0368,1.0377,1.0395,1.0407,1.0413,1.0421,1.0433,1.0433,1.0436,1.0455,1.0431,1.0392,1.0389,1.0439,1.0439,1.0439,0,1.0154,1.018,1.0187,1.0198,1.0236,1.0239,1.0254,1.0279,1.029,1.0308,1.0315,1.0334,1.0344,1.0358,1.0385,1.0395,1.0395,1.0414,1.0408,1.0407,1.0406,1.0406,1.0368,1.041,1.041,1.041,1.041,0,1.0123,1.0125,1.0169,1.0174,1.0178,1.0211,1.0214,1.0233,1.0255,1.0264,1.0293,1.0301,1.0336,1.0348,1.0369,1.0377,1.0381,1.0393,1.0398,1.0391,1.0389,1.0397,1.0399,1.041,1.041,1.041,1.041,0,1.0076,1.0105,1.0116,1.0152,1.0161,1.0163,1.0194,1.02,1.0222,1.0233,1.0237,1.0271,1.0287,1.0315,1.0339,1.0353,1.0357,1.0367,1.035,1.0353,1.0345,1.0346,1.0312,1.031,1.0352,1.0351,1.0351,0,1.0054,1.0058,1.0095,1.0104,1.0119,1.0132,1.0144,1.0176,1.0187,1.0216,1.0219,1.0237,1.0254,1.0278,1.0304,1.0323,1.0334,1.032,1.0336,1.0329,1.0335,1.0335,1.0336,1.0317,1.0316,1.0315,1.0315,0,1.0013,1.0028,1.0044,1.0066,1.008,1.0098,1.0118,1.0124,1.0161,1.0171,1.0189,1.0202,1.0228,1.0246,1.0269,1.0285,1.0307,1.031,1.031,1.0302,1.0293,1.0299,1.0341,1.0311,1.0311,1.0311,1.0312,1.0312,0.9979,0.9985,1.0012,1.003,1.0049,1.0067,1.0075,1.0099,1.0114,1.0139,1.0157,1.0173,1.0199,1.0232,1.0247,1.0261,1.0271,1.027,1.0269,1.0269,1.0267,1.029,1.0265,1.0265,1.0265,1.0266,1.0266,0,0.9941,0.9961,0.9977,1.0005,1.0019,1.0039,1.0063,1.0073,1.0088,1.011,1.0127,1.0148,1.0167,1.0195,1.0216,1.0222,1.0232,1.0226,1.0227,1.023,1.0256,1.0255,1.0218,1.0218,1.0218,1.0218,1.0218,1.0218,0.9923,0.9933,0.9952,0.9973,0.9993,1.001,1.0022,1.004,1.0058,1.0081,1.0097,1.0116,1.0142,1.0165,1.0183,1.0191,1.0198,1.0189,1.02,1.0224,1.0228,1.0232,1.0232,1.019,1.019,1.0174,1.0174,1.0174]}]]